Weather History for PATA - November, 2012

Change the Weather History Date:

Monday, November 19, 2012

  Actual Average Record
Temperature  
Mean Temperature -2 °F -  
Max Temperature 6 °F 7 °F 27 °F (1964)
Min Temperature -11 °F -5 °F -36 °F (1993)
Degree Days  
Heating Degree Days 68    
Moisture  
Dew Point -12 °F    
Average Humidity 60    
Maximum Humidity 75    
Minimum Humidity 45    
Precipitation  
Precipitation 0.00 in - - ()
Snow  
Snow 0.00 in - - ()
Snow Depth 4.00 in    
Sea Level Pressure  
Sea Level Pressure 30.11 in    
Wind  
Wind Speed 5 mph (ENE)    
Max Wind Speed 16 mph    
Max Gust Speed 24 mph    
Visibility 10 miles    
Events      
Averages and records for this station are not official NWS values.
T = Trace of Precipitation, MM = Missing Value Source: NWS Daily Summary

Daily Weather History Graph

Daily Weather History Graph

Search for Another Location

Airport or City:

Trip Planner

Search our weather history database for the weather conditions in past years. The results will help you decide how hot, cold, wet, or windy it might be!

Date:

Astronomy

Nov. 19, 2012 Rise Set
Actual Time 10:03 AM AKST 3:43 PM AKST
Civil Twilight 8:56 AM AKST 4:51 PM AKST
Nautical Twilight 7:51 AM AKST 5:56 PM AKST
Astronomical Twilight 6:51 AM AKST 6:55 PM AKST
Moon 2:04 PM AKST (11/19) 11:40 PM AKST (11/19)
Length of Visible Light 7h 54m
Length of Day
5h 39m
Waxing Crescent, 42% of the Moon is Illuminated
Nov 19
Waxing Crescent
Nov 20
First Quarter
Nov 28
Full
Dec 6
Last Quarter
Dec 12
New

Hourly Weather History & Observations

Time (AKST) Temp. Windchill Dew Point Humidity Pressure Visibility Wind Dir Wind Speed Gust Speed Precip Events Conditions
12:52 AM 3.0 °F -6.4 °F -11.0 °F 52% 30.03 in 10.0 mi NE 4.6 mph - 0.00 in   Scattered Clouds
1:52 AM 1.9 °F - -11.9 °F 52% 30.04 in 10.0 mi Calm Calm - N/A   Partly Cloudy
2:52 AM 3.0 °F -4.4 °F -11.0 °F 52% 30.04 in 10.0 mi ENE 3.5 mph - N/A   Mostly Cloudy
3:52 AM 6.1 °F -11.6 °F -11.0 °F 45% 30.05 in 10.0 mi ENE 15.0 mph 24.2 mph N/A   Scattered Clouds
4:52 AM 5.0 °F -10.0 °F -11.9 °F 46% 30.06 in 10.0 mi NNE 10.4 mph 19.6 mph 0.00 in   Clear
5:52 AM 5.0 °F -5.6 °F -11.0 °F 48% 30.07 in 10.0 mi East 5.8 mph - 0.00 in   Clear
6:52 AM 1.9 °F -9.2 °F -9.0 °F 60% 30.09 in 10.0 mi East 5.8 mph - N/A   Clear
7:52 AM -4.0 °F - -13.0 °F 65% 30.09 in 10.0 mi Calm Calm - N/A   Clear
8:52 AM 1.9 °F -9.2 °F -9.9 °F 58% 30.11 in 10.0 mi ESE 5.8 mph - N/A   Clear
9:52 AM -9.9 °F -19.2 °F -16.1 °F 74% 30.12 in 10.0 mi North 3.5 mph - N/A   Partly Cloudy
10:52 AM -11.9 °F - -18.0 °F 74% 30.12 in 10.0 mi Calm Calm - N/A   Partly Cloudy
11:52 AM -5.1 °F -15.8 °F -13.0 °F 69% 30.12 in 10.0 mi Variable 4.6 mph - N/A   Partly Cloudy
12:52 PM -4.0 °F -12.4 °F -11.9 °F 69% 30.12 in 10.0 mi West 3.5 mph - N/A   Partly Cloudy
1:52 PM 1.9 °F -9.2 °F -9.9 °F 58% 30.12 in 10.0 mi SSE 5.8 mph - N/A   Partly Cloudy
2:52 PM 1.9 °F -10.6 °F -9.9 °F 58% 30.14 in 10.0 mi South 6.9 mph - N/A   Partly Cloudy
3:52 PM -0.0 °F -7.9 °F -11.9 °F 57% 30.15 in 10.0 mi ENE 3.5 mph - N/A   Clear
4:52 PM -0.0 °F -11.6 °F -11.0 °F 60% 30.15 in 10.0 mi East 5.8 mph - N/A   Partly Cloudy
5:52 PM 1.0 °F -15.8 °F -11.0 °F 57% 30.15 in 10.0 mi SSE 11.5 mph - N/A   Clear
6:52 PM -2.9 °F - -11.9 °F 65% 30.16 in 10.0 mi Calm Calm - N/A   Clear
7:52 PM -9.0 °F -23.8 °F -16.1 °F 71% 30.17 in 10.0 mi North 6.9 mph - N/A   Clear
8:52 PM -11.0 °F -28.8 °F -17.0 °F 75% 30.17 in 10.0 mi NW 9.2 mph - N/A   Clear
9:52 PM -2.0 °F -12.2 °F -11.9 °F 63% 30.17 in 10.0 mi ENE 4.6 mph - N/A   Clear
10:52 PM -2.9 °F -13.3 °F -13.0 °F 62% 30.16 in 10.0 mi ESE 4.6 mph - N/A   Clear
11:52 PM 1.9 °F -17.5 °F -13.0 °F 50% 30.14 in 10.0 mi NNE 16.1 mph 21.9 mph N/A   Clear